TimePDT,TemperatureF,Dew PointF,Humidity,Sea Level PressureIn,VisibilityMPH,Wind Direction,Wind SpeedMPH,Gust SpeedMPH,PrecipitationIn,Events,Conditions,WindDirDegrees,DateUTC
12:53 AM,48.0,39.9,74,29.98,10.0,NW,10.4,-,N/A,,Clear,320,2013-03-22 07:53:00
1:53 AM,46.0,39.9,79,29.98,10.0,NNW,5.8,-,N/A,,Clear,330,2013-03-22 08:53:00
2:53 AM,42.1,37.9,85,29.98,10.0,NNE,4.6,-,N/A,,Clear,20,2013-03-22 09:53:00
3:53 AM,39.0,36.0,89,29.97,10.0,ENE,6.9,-,N/A,,Clear,60,2013-03-22 10:53:00
4:53 AM,37.9,35.1,89,29.96,10.0,ENE,4.6,-,N/A,,Clear,70,2013-03-22 11:53:00
5:53 AM,37.0,34.0,89,29.98,10.0,East,5.8,-,N/A,,Clear,80,2013-03-22 12:53:00
6:53 AM,35.1,32.0,89,29.99,10.0,ENE,8.1,-,N/A,,Clear,70,2013-03-22 13:53:00
7:53 AM,37.0,35.1,93,30.02,10.0,Calm,Calm,-,N/A,,Clear,0,2013-03-22 14:53:00
8:53 AM,44.1,37.0,76,30.03,10.0,Calm,Calm,-,N/A,,Clear,0,2013-03-22 15:53:00
9:53 AM,50.0,37.9,63,30.03,10.0,Calm,Calm,-,N/A,,Clear,0,2013-03-22 16:53:00
10:53 AM,55.0,34.0,45,30.03,10.0,Calm,Calm,-,N/A,,Clear,0,2013-03-22 17:53:00
11:53 AM,60.1,30.9,33,30.03,10.0,Calm,Calm,-,N/A,,Clear,0,2013-03-22 18:53:00
12:53 PM,64.9,32.0,29,30.00,10.0,Variable,3.5,-,N/A,,Clear,0,2013-03-22 19:53:00
1:53 PM,70.0,24.1,18,29.98,10.0,WNW,9.2,-,N/A,,Clear,300,2013-03-22 20:53:00
2:53 PM,73.9,19.9,13,29.95,10.0,NW,11.5,17.3,N/A,,Clear,320,2013-03-22 21:53:00
3:53 PM,75.0,15.1,10,29.93,10.0,NNW,13.8,-,N/A,,Clear,340,2013-03-22 22:53:00
4:53 PM,73.9,14.0,10,29.93,10.0,NW,15.0,-,N/A,,Clear,320,2013-03-22 23:53:00
5:53 PM,72.0,21.0,15,29.94,10.0,NNW,16.1,-,N/A,,Clear,330,2013-03-23 00:53:00
6:53 PM,66.9,24.1,20,29.95,10.0,North,13.8,-,N/A,,Clear,350,2013-03-23 01:53:00
7:53 PM,62.1,18.0,18,29.99,10.0,North,6.9,-,N/A,,Clear,360,2013-03-23 02:53:00
8:53 PM,59.0,15.1,18,30.01,10.0,Calm,Calm,-,N/A,,Clear,0,2013-03-23 03:53:00
9:53 PM,53.1,18.0,25,30.03,10.0,Calm,Calm,-,N/A,,Clear,0,2013-03-23 04:53:00
10:53 PM,48.9,28.9,46,30.04,10.0,NNW,6.9,-,N/A,,Clear,340,2013-03-23 05:53:00
11:53 PM,46.0,26.1,46,30.04,10.0,North,4.6,-,N/A,,Clear,350,2013-03-23 06:53:00